Regional Weather Roundup
Issued by NWS Wakefield, VA

Home | Current Version | Previous Version | Graphics & Text | Print | Product List | Glossary On
Versions: 1 2 3 4 5 6 7 8 9 10 11 12 13 14 15 16 17 18 19 20 21 22 23 24 25 26 27 28 29 30 31 32 33 34 35 36 37 38 39 40 41 42 43 44 45 46 47 48 49 50
000
ASUS41 KAKQ 211210
RWRAKQ

REGIONAL WEATHER ROUNDUP
NATIONAL WEATHER SERVICE WAKEFIELD VA
700 AM EST SUN DEC 21 2014

Note: "fair" indicates few or no clouds below 12,000 feet with no
significant weather and/or obstructions to visibility. * = Denotes
station may not report precipitation (e.g., rain,snow,etc.),
thunder or fog.

VAZ042-051-052>054-056-211300-
NORTHERN VIRGINIA

CITY           SKY/WX    TMP DP  RH WIND       PRES   REMARKS
WASH NATIONAL  CLOUDY    37  23  56 N3        30.34S
DULLES         CLOUDY    32  24  72 CALM      30.33R
FORT BELVOIR   CLOUDY    32  28  82 CALM      30.34R
QUANTICO       CLOUDY    34  26  72 CALM      30.35R
FREDERICKSBRG* CLOUDY    34  30  86 CALM      30.34R
STAFFORD*      CLOUDY    32  27  83 CALM      30.38R
WARRENTON      CLOUDY    33  32  98 CALM      30.32R
CULPEPER*      CLOUDY    34  28  80 CALM      30.33R
MANASSAS*      NOT AVBL
LEESBURG*      CLOUDY    32  28  86 CALM      30.33S
WINCHESTER     CLOUDY    32  23  69 CALM      30.30S
FRONT ROYAL*   CLOUDY    32  25  74 CALM      30.30R
LURAY*         CLOUDY    32  28  86 NE3       30.29R
$$

VAZ048-049-060>072-079>083-211300-
CENTRAL AND SOUTH CENTRAL VIRGINIA

CITY           SKY/WX    TMP DP  RH WIND       PRES   REMARKS
RICHMOND       CLOUDY    36  26  67 CALM      30.32R
CHESTERFIELD*  CLOUDY    36  18  48 CALM      30.33R
PETERSBURG*    CLOUDY    36  32  85 CALM      30.33R
HANOVER        CLOUDY    33  27  78 CALM      30.34R
TAPPAHANNOCK*  CLOUDY    33  28  80 CALM      30.34R
QUINTON*       CLOUDY    33  28  79 CALM      30.33R
CHARLOTTSVILLE CLOUDY    32  26  78 N3        30.30R
GORDONSVILLE*  CLOUDY    32  27  82 CALM      30.31R
ORANGE*        CLOUDY    34  30  86 CALM      30.33R
LOUISA*        CLOUDY    34  28  80 CALM      30.29S
BUMPASS*       CLOUDY    32  26  77 CALM      30.31S
FARMVILLE*     CLOUDY    36  29  77 CALM      30.30R
CREWE*         CLOUDY    33  29  85 CALM      30.29S
FORT PICKETT*  CLOUDY    33  28  82 CALM      30.30S
CHASE CITY*    CLOUDY    37  35  90 CALM      30.29R
CLARKSVILLE*   CLOUDY    36  34  93 CALM      30.29R
SOUTH HILL*    CLOUDY    33  29  86 CALM      30.36R
LAWRENCEVILLE* CLOUDY    34  30  86 CALM      30.30R
EMPORIA*       CLOUDY    32  32 100 CALM      30.33S
$$

VAZ088>098-211300-
SOUTHEAST VIRGINIA

CITY           SKY/WX    TMP DP  RH WIND       PRES   REMARKS
NORFOLK        CLOUDY    38  29  70 NE8       30.31R
VIRGINIA BEACH MOCLDY    33  29  85 NE5       30.30R
NORFOLK NAVAL  MOCLDY    41  30  65 NE7       30.32R
WEST POINT*    CLOUDY    36  29  74 CALM      30.34S
SALUDA*        CLOUDY    35  28  75 N5        30.32R
NEWPORT NEWS   CLOUDY    37  28  70 N5        30.32R
LANGLEY AFB    CLOUDY    36  29  76 N6        30.33R
FORT EUSTIS    CLOUDY    36  26  66 N2        30.31R
WILLIAMSBURG*  CLOUDY    37  30  75 CALM      30.33R
HR EXEC AP*    CLOUDY    30  28  93 W3        30.34R
FRANKLIN*      CLOUDY    32  30  93 CALM      30.32R
WAKEFIELD      CLOUDY    34  29  82 CALM      30.32R
$$

VAZ020-022-025-037-045-211300-
WEST CENTRAL AND SOUTHWEST VIRGINIA

CITY           SKY/WX    TMP DP  RH WIND       PRES   REMARKS
STAUNTON*      CLOUDY    32  28  83 CALM      30.29R
WAYNESBORO*    CLOUDY    30  25  81 CALM      30.26R
HOT SPRINGS VA CLOUDY    28  28 100 W9        30.14R FOG
LYNCHBURG      CLOUDY    33  30  88 CALM      30.29R
DANVILLE       CLOUDY    37  33  85 CALM      30.29R
SOUTH BOSTON*  CLOUDY    36  33  90 CALM      30.30R
MARTINSVILLE   CLOUDY    37  35  94 CALM      30.29R
ROANOKE        CLOUDY    35  27  72 CALM      30.28R
BLACKSBURG     CLOUDY    34  30  84 CALM      30.25R
DUBLIN*        CLOUDY    36  36  99 CALM      30.24R
MARION*        CLOUDY    37  33  87 CALM      30.23R
HILLSVILLE*    CLOUDY    34  32  92 CALM      30.20R
RICHLANDS*     CLOUDY    32  30  92 CALM      30.20S
WISE*          CLEAR     30  30 100 E3        30.21R FOG
ABINGDON*      CLOUDY    37  37  99 CALM      30.22R FOG
$$

MDZ021>025-VAZ099-100-211300-
SOUTHERN MARYLAND AND THE DELMARVA PENINSULA

CITY           SKY/WX    TMP DP  RH WIND       PRES   REMARKS
PATUXENT RIVER CLOUDY    34  27  75 NW6       30.33R
BAY BRIDGE APT   N/A     34  30  86 CALM      30.34R
LEONARDTOWN    CLOUDY    32  27  80 CALM      30.35R
DOVER          CLOUDY    32  26  80 NW3       30.31R
GEORGETOWN     CLOUDY    31  25  78 CALM      30.34R
EASTON         NOT AVBL
CAMBRIDGE      CLOUDY    32  30  93 CALM      30.33R
SALISBURY      CLOUDY    33  27  78 CALM      30.33R
OCEAN CITY     CLOUDY    31  27  85 CALM      30.33R
WALLOPS ISLAND CLOUDY    33  26  75 N5        30.33R
ACCOMACK*      CLOUDY    32  27  80 NE3       30.32R
$$

NCZ012>017-030>032-211300-
NORTH CENTRAL AND EASTERN NORTH CAROLINA

CITY           SKY/WX    TMP DP  RH WIND       PRES   REMARKS
ROANOKE RAPIDS CLOUDY    32  32 100 CALM      30.31R
RALEIGH        CLOUDY    38  34  85 E5        30.29R FOG
ELIZABETH CITY MOCLDY    38  30  73 N9        30.30S
AHOSKIE*       CLOUDY    32  30  92 CALM      30.32R
EDENTON*         N/A     31  29  94 N3        30.31R
CURRITUCK*     MOCLDY    32  30  92 N3        30.31S
KILL DEVIL HLS CLEAR     40  33  76 N7        30.28R
MANTEO         CLEAR     40  34  80 N10       30.29S
CAPE HATTERAS  CLEAR     43  38  82 NE10G18   30.26R
TARBORO*       MOSUNNY   27  27 100 CALM      30.31S FOG
GOLDSBORO      NOT AVBL
WASHINGTON     CLEAR     32  30  92 CALM      30.30R
GREENVILLE     CLEAR     28  28 100 CALM      30.31R FOG
NEW BERN       PTCLDY    36  32  85 N5        30.30R
WILMINGTON     CLOUDY    38  34  85 N8        30.27R
$$

VAZ048-211300-
ELSEWHERE

CITY           SKY/WX    TMP DP  RH WIND       PRES   REMARKS
HARRISBURG PA  PTCLDY    26  20  77 N6        30.32R
BALTIMORE      CLOUDY    32  23  69 CALM      30.33R
ANNAPOLIS      CLOUDY    34  26  72 NW3       30.34R
ANDREWS AFB    CLOUDY    31  26  80 CALM        N/A
PHILADELPHIA   MOCLDY    31  22  69 NW3       30.33R
HENDERSON NC   CLOUDY    34  32  94 CALM      30.29R FOG
GREENSBORO     CLOUDY    39  35  86 CALM      30.26R
ROCKY MOUNT    MOCLDY    30  28  92 NE5       30.30R
$$

VAZ100-211300-
MARINE

STATION/POSITION TIME  TEMP    WIND        PRES    WAVE   SWELL
                       AIR SEA DIR/SP/G            HT/PER HT/PER
                 (UTC) (F)     (DEG/KT/KT) (MB)    (FT/S) (FT/S)
CAPE MAY NJ      1200   32 42   90/  2/  2 1026.6R
LEWES DE         1200   33 42  290/  6/  7 1027.0R
15NM E FENWICK I 1100   36 45              1025.5S   2/10
OCEAN-CITY-INLET 1200   34 44  340/  4/  5 1026.6R
WACHAPREAGUE VA  1200   33 40  340/  3/  5 1026.7R
THOMAS POINT MD  1200   35 40  350/  7/  7 1028.3R
GOOSES REEF MD   1200   36     VRB  2/  4  1026.2R
COVE POINT MD    1200   34     340/  5/  6 1027.0R
SOLOMONS ISLAND  1200      42                N/A
BISHOPS HEAD MD  1200   34 37   10/  2/  4 1026.5R
POTOMAC MD       1200   36     350/  6/  8 1026.0R
CAMBRIDGE MD     1200   34 40  290/  2/  2 1027.1R
LEWISETTA VA     1200   36 41  360/  3/  5 1026.9R
RAPPAHANNOCK LGT 1200           40/  7/  8 1027.1R
STINGRAY PT      1200   38      20/  6/  8 1027.2R
YORK RVR RNG VA  1200   38      30/  9/ 10 1025.9S
YORKTOWN VA      1200   37 45   20/  7/  8 1026.2S
JAMESTOWN VA     1200   35      40/  2/  4   N/A
DOMINION TERM VA 1200   36      60/  1/  2 1026.5R
KIPTOPEKE VA     1200      48   50/  4/  5   N/A
CHES BAY BRIDGE  1200   38 46   10/  8/ 10 1026.0R
CAPE HENRY VA    1200   38      20/ 10/ 12 1025.2R
CHESAPEAKE LGHT  1100   39      10/ 12/ 13 1026.5R
WILLOUBY STN VA  1200   38     360/  7/  8 1026.7R
S CRANEY ISL VA  1200           20/  9/ 10 1026.2R
CAPE HENRY BUOY  1200      49                N/A     2/10
1ST LANDING BUOY 1200   38      30/ 10/ 12 1025.8R
CAPE CHARLES BUO 1200      47                N/A     2/11   2/11
64NM E OF VA BCH 1200   43 54   10/ 12/ 16 1025.1R   2/ 3   2/11
DUCK PIER NC     1200   42 45   10/ 13/ 14 1024.8S
44100 DUCK FRF   1200      52                N/A     3/ 4
44056 DUCK FRF   1200      46                N/A     2/ 3
OREGON INLET NC  1200   42 49   10/  9/ 13 1025.3R
HATTERAS NC      1200   44 48   30/ 12/ 17 1024.9R
DIAMOND SHLS NC  1200   49                 1024.1R   3/ 4
CAPE LOOKOUT NC  1100   43      20/ 13/ 16 1024.0R
$$


USA.gov is the U.S. government's official web portal to all federal, state and local government web resources and services.